VKG1790 ESGG-LCLK

Flight info

Callsign VKG1790
Flight time N/A
Altitude 35000
Route TOPLA DCT ROXUB DCT POKEN DCT ELTUB DCT UNVOX DCT TUPUR DCT ADVAB DCT ARMEX L619 NUDRO DCT REGLI DCT SOPAV DCT BILNA DCT TEGRI DCT PADGU/N0433F370 DCT LOMOS DCT RODIP UN131 PIBOM DCT BELGI UN131 KULAR UT39 TOMBI DCT DASNI M601 BONEK
Aircraft A21N/M-SDE2E3FGHIJ1J3J4J5P2RWXYZ/LB2D1G1

Departure

Time 2026-05-06 15:53
Airport Göteborg Landvetter Airport (ESGG)

Arrival

Time N/A
Airport Larnaca International Airport (LCLK)
Time Latitude Longitude Altitude Speed Heading
2026-05-06 15:28 57.66669 12.29213 521 ft 0 kts 116°
2026-05-06 15:35 57.66670 12.29213 521 ft 0 kts 116°
2026-05-06 15:35 57.66670 12.29212 521 ft 0 kts 116°
2026-05-06 15:40 57.66672 12.29203 521 ft 0 kts 116°
2026-05-06 15:40 57.66684 12.29160 521 ft 0 kts 116°
2026-05-06 15:40 57.66695 12.29130 521 ft 0 kts 145°
2026-05-06 15:40 57.66705 12.29101 521 ft 0 kts 87°
2026-05-06 15:41 57.66694 12.29076 521 ft 0 kts 26°
2026-05-06 15:41 57.66671 12.29055 521 ft 0 kts 26°
2026-05-06 15:41 57.66667 12.29052 521 ft 1 kts 26°
2026-05-06 15:45 57.66672 12.29056 521 ft 2 kts 26°
2026-05-06 15:46 57.66688 12.29071 521 ft 3 kts 26°
2026-05-06 15:46 57.66721 12.29100 521 ft 8 kts 26°
2026-05-06 15:46 57.66779 12.29162 521 ft 10 kts 36°
2026-05-06 15:46 57.66846 12.29234 521 ft 12 kts 26°
2026-05-06 15:47 57.66925 12.29300 521 ft 13 kts 24°
2026-05-06 15:47 57.67011 12.29383 521 ft 14 kts 26°
2026-05-06 15:47 57.67106 12.29468 521 ft 16 kts 25°
2026-05-06 15:47 57.67206 12.29559 521 ft 15 kts 26°
2026-05-06 15:48 57.67289 12.29634 521 ft 14 kts 25°
2026-05-06 15:48 57.67361 12.29656 521 ft 10 kts 316°
2026-05-06 15:48 57.67394 12.29540 521 ft 11 kts 295°
2026-05-06 15:48 57.67431 12.29401 521 ft 13 kts 297°
2026-05-06 15:49 57.67440 12.29368 521 ft 0 kts 296°
2026-05-06 15:49 57.67444 12.29354 521 ft 3 kts 296°
2026-05-06 15:49 57.67459 12.29287 521 ft 6 kts 286°
2026-05-06 15:49 57.67466 12.29196 520 ft 8 kts 267°
2026-05-06 15:50 57.67456 12.29088 521 ft 9 kts 257°
2026-05-06 15:50 57.67418 12.29013 520 ft 0 kts 207°
2026-05-06 15:52 57.67419 12.29013 520 ft 0 kts 207°
2026-05-06 15:52 57.67409 12.29004 520 ft 8 kts 207°
2026-05-06 15:52 57.67158 12.28772 519 ft 71 kts 204°
2026-05-06 15:53 57.66538 12.28213 517 ft 124 kts 205°
2026-05-06 15:53 57.65628 12.27389 507 ft 164 kts 206°
2026-05-06 15:53 57.64552 12.26402 781 ft 172 kts 209°
2026-05-06 15:53 57.63474 12.25424 1327 ft 174 kts 209°
2026-05-06 15:54 57.62380 12.24431 1832 ft 176 kts 208°
2026-05-06 15:54 57.61273 12.23425 2274 ft 181 kts 208°
2026-05-06 15:54 57.60091 12.22351 2613 ft 197 kts 205°
2026-05-06 15:54 57.58689 12.21970 3071 ft 216 kts 170°
2026-05-06 15:55 57.57161 12.22722 3389 ft 243 kts 170°
2026-05-06 15:55 57.55410 12.22813 3920 ft 258 kts 178°
2026-05-06 15:55 57.53609 12.23144 4786 ft 261 kts 172°
2026-05-06 15:55 57.51813 12.23617 5722 ft 261 kts 172°
2026-05-06 15:56 57.50018 12.24101 6614 ft 262 kts 172°
2026-05-06 15:56 57.48182 12.24600 7457 ft 264 kts 172°
2026-05-06 15:56 57.46346 12.25099 8281 ft 269 kts 172°
2026-05-06 15:56 57.44487 12.25600 9108 ft 273 kts 172°
2026-05-06 15:57 57.42615 12.26106 9916 ft 277 kts 172°
2026-05-06 15:57 57.40656 12.26637 10375 ft 295 kts 172°
2026-05-06 15:57 57.38550 12.27207 10701 ft 316 kts 172°
2026-05-06 15:57 57.36331 12.27808 11242 ft 327 kts 173°
2026-05-06 15:58 57.34063 12.28424 11962 ft 332 kts 173°
2026-05-06 15:58 57.31773 12.29040 12699 ft 337 kts 174°
2026-05-06 15:58 57.29439 12.29661 13437 ft 342 kts 174°
2026-05-06 15:58 57.27039 12.30301 14126 ft 347 kts 174°
2026-05-06 15:59 57.24630 12.30943 14802 ft 350 kts 174°
2026-05-06 15:59 57.22212 12.31586 15497 ft 353 kts 175°
2026-05-06 15:59 57.19773 12.32240 16183 ft 356 kts 175°
2026-05-06 15:59 57.17309 12.32898 16866 ft 359 kts 175°
2026-05-06 16:00 57.14829 12.33583 17536 ft 363 kts 173°
2026-05-06 16:00 57.12390 12.34977 18190 ft 372 kts 159°
2026-05-06 16:00 57.10075 12.37158 18760 ft 377 kts 156°
2026-05-06 16:00 57.07768 12.39482 19311 ft 380 kts 156°
2026-05-06 16:01 57.05437 12.41815 19847 ft 382 kts 156°
2026-05-06 16:01 57.03088 12.44141 20392 ft 385 kts 156°
2026-05-06 16:01 57.00721 12.46460 20927 ft 387 kts 157°
2026-05-06 16:01 56.98299 12.48823 21460 ft 390 kts 157°
2026-05-06 16:02 56.95894 12.51163 21982 ft 393 kts 157°
2026-05-06 16:02 56.93471 12.53520 22489 ft 396 kts 157°
2026-05-06 16:02 56.91029 12.55891 22997 ft 399 kts 157°
2026-05-06 16:02 56.88565 12.58277 23489 ft 402 kts 158°
2026-05-06 16:03 56.86084 12.60679 23916 ft 404 kts 158°
2026-05-06 16:03 56.83618 12.63063 24367 ft 406 kts 158°
2026-05-06 16:03 56.81111 12.65478 24819 ft 407 kts 158°
2026-05-06 16:03 56.78602 12.67889 25263 ft 409 kts 158°
2026-05-06 16:04 56.76079 12.70309 25696 ft 410 kts 158°
2026-05-06 16:04 56.73553 12.72734 26090 ft 412 kts 158°
2026-05-06 16:04 56.71003 12.75181 26442 ft 416 kts 158°
2026-05-06 16:04 56.68445 12.77633 26893 ft 416 kts 158°
2026-05-06 16:05 56.65881 12.80086 27315 ft 417 kts 158°
2026-05-06 16:05 56.64180 12.81709 27583 ft 417 kts 158°
2026-05-06 16:05 56.61596 12.84171 27968 ft 419 kts 158°
2026-05-06 16:05 56.59011 12.86630 28323 ft 421 kts 158°
2026-05-06 16:06 56.56411 12.89098 28677 ft 422 kts 158°
2026-05-06 16:06 56.53808 12.91564 29020 ft 424 kts 158°
2026-05-06 16:06 56.51190 12.94040 29360 ft 426 kts 158°
2026-05-06 16:06 56.48523 12.96565 29710 ft 427 kts 158°
2026-05-06 16:07 56.45882 12.99061 30044 ft 429 kts 157°
2026-05-06 16:07 56.43238 13.01552 30332 ft 430 kts 157°
2026-05-06 16:07 56.40582 13.04053 30602 ft 432 kts 157°
2026-05-06 16:07 56.37911 13.06563 30866 ft 433 kts 157°
2026-05-06 16:08 56.35230 13.09078 31125 ft 435 kts 157°
2026-05-06 16:08 56.32544 13.11593 31390 ft 436 kts 157°
2026-05-06 16:08 56.29868 13.14095 31700 ft 436 kts 157°
2026-05-06 16:08 56.27179 13.16603 32038 ft 435 kts 157°
2026-05-06 16:09 56.24495 13.19105 32373 ft 433 kts 157°
2026-05-06 16:09 56.21818 13.21598 32695 ft 432 kts 157°
2026-05-06 16:09 56.19155 13.24072 32976 ft 432 kts 157°
2026-05-06 16:09 56.16489 13.26547 33271 ft 431 kts 157°
2026-05-06 16:10 56.13789 13.29051 33561 ft 430 kts 157°
2026-05-06 16:10 56.11132 13.31506 33843 ft 430 kts 157°
2026-05-06 16:10 56.08508 13.33929 34065 ft 429 kts 157°
2026-05-06 16:10 56.05823 13.36403 34249 ft 430 kts 157°
2026-05-06 16:11 56.03187 13.38829 34409 ft 430 kts 156°
2026-05-06 16:11 56.00502 13.41300 34583 ft 431 kts 156°
2026-05-06 16:11 55.97865 13.43720 34729 ft 431 kts 156°
2026-05-06 16:11 55.95196 13.46166 34888 ft 432 kts 157°
2026-05-06 16:12 55.92489 13.48639 34989 ft 432 kts 156°
2026-05-06 16:12 55.89818 13.51079 34972 ft 431 kts 156°
2026-05-06 16:12 55.84503 13.55920 34961 ft 431 kts 156°
2026-05-06 16:13 55.79163 13.60772 34955 ft 431 kts 156°
2026-05-06 16:13 55.73831 13.65602 34947 ft 431 kts 156°
2026-05-06 16:14 55.68483 13.70429 34940 ft 431 kts 156°
2026-05-06 16:14 55.63124 13.75248 34943 ft 432 kts 156°
2026-05-06 16:15 55.57763 13.80057 34937 ft 432 kts 156°
2026-05-06 16:15 55.52392 13.84859 34943 ft 432 kts 156°
2026-05-06 16:16 55.47024 13.89650 34943 ft 433 kts 156°
2026-05-06 16:16 55.41645 13.94431 34933 ft 434 kts 156°
2026-05-06 16:17 55.36256 13.99207 34938 ft 434 kts 156°
2026-05-06 16:17 55.30849 14.03982 34934 ft 435 kts 157°
2026-05-06 16:18 55.25485 14.08887 34928 ft 438 kts 152°
2026-05-06 16:18 55.20333 14.14542 34927 ft 438 kts 151°
2026-05-06 16:19 55.15175 14.20246 34921 ft 439 kts 152°
2026-05-06 16:19 55.10001 14.25923 34927 ft 439 kts 152°
2026-05-06 16:20 55.04821 14.31590 34923 ft 440 kts 152°
2026-05-06 16:20 54.99629 14.37253 34924 ft 440 kts 152°
2026-05-06 16:21 54.94424 14.42911 34921 ft 441 kts 152°
2026-05-06 16:21 54.89215 14.48554 34919 ft 441 kts 152°
2026-05-06 16:22 54.83966 14.54225 34915 ft 442 kts 152°
2026-05-06 16:22 54.78535 14.59088 34912 ft 438 kts 160°
2026-05-06 16:23 54.72992 14.63313 34897 ft 438 kts 161°
2026-05-06 16:23 54.67422 14.67563 34889 ft 439 kts 161°
2026-05-06 16:24 54.61811 14.71848 34885 ft 438 kts 161°
2026-05-06 16:24 54.56265 14.76080 34890 ft 439 kts 161°
2026-05-06 16:25 54.50670 14.80327 34881 ft 439 kts 161°
2026-05-06 16:25 54.45049 14.84583 34878 ft 439 kts 161°
2026-05-06 16:26 54.39458 14.88810 34872 ft 439 kts 161°
2026-05-06 16:26 54.33869 14.93018 34869 ft 439 kts 161°
2026-05-06 16:27 54.28278 14.97212 34861 ft 438 kts 162°
2026-05-06 16:27 54.22691 15.01393 34859 ft 438 kts 162°
2026-05-06 16:28 54.17103 15.05566 34851 ft 438 kts 162°
2026-05-06 16:28 54.11540 15.09704 34850 ft 438 kts 162°
2026-05-06 16:29 54.05954 15.13857 34851 ft 438 kts 162°
2026-05-06 16:29 54.00355 15.17998 34845 ft 438 kts 162°
2026-05-06 16:30 53.95663 15.21458 34843 ft 438 kts 162°
2026-05-06 16:30 53.89158 15.26242 34839 ft 438 kts 163°
2026-05-06 16:31 53.83530 15.30368 34830 ft 438 kts 163°
2026-05-06 16:31 53.77933 15.34460 34832 ft 438 kts 163°
2026-05-06 16:32 53.72375 15.38516 34822 ft 438 kts 163°
2026-05-06 16:32 53.66734 15.42571 34822 ft 437 kts 165°
2026-05-06 16:33 53.61097 15.46290 34816 ft 436 kts 165°
2026-05-06 16:34 53.52597 15.51853 34812 ft 436 kts 165°
2026-05-06 16:34 53.47008 15.55947 34810 ft 439 kts 162°
2026-05-06 16:35 53.41446 15.60160 34807 ft 439 kts 162°
2026-05-06 16:35 53.35870 15.64368 34805 ft 439 kts 162°
2026-05-06 16:36 53.30303 15.68550 34802 ft 439 kts 162°
2026-05-06 16:36 53.24725 15.72722 34800 ft 439 kts 162°
2026-05-06 16:37 53.19138 15.76891 34805 ft 440 kts 162°
2026-05-06 16:37 53.13560 15.81062 34781 ft 441 kts 161°
2026-05-06 16:38 53.08131 15.85972 34788 ft 445 kts 157°
2026-05-06 16:38 53.02746 15.91034 34784 ft 445 kts 157°
2026-05-06 16:39 52.97343 15.96072 34788 ft 445 kts 157°
2026-05-06 16:39 52.91939 16.01086 34786 ft 446 kts 157°
2026-05-06 16:40 52.86531 16.06092 34791 ft 445 kts 157°
2026-05-06 16:40 52.81126 16.11079 34789 ft 444 kts 157°
2026-05-06 16:41 52.76647 16.15208 34792 ft 443 kts 157°
2026-05-06 16:41 52.71257 16.20155 34788 ft 443 kts 157°
2026-05-06 16:42 52.65873 16.25086 34785 ft 442 kts 157°
2026-05-06 16:42 52.60454 16.30033 34785 ft 442 kts 157°
2026-05-06 16:43 52.55084 16.34920 34790 ft 443 kts 157°
2026-05-06 16:43 52.49689 16.39817 34788 ft 443 kts 157°
2026-05-06 16:44 52.44295 16.44694 34788 ft 443 kts 157°
2026-05-06 16:44 52.38894 16.49568 34781 ft 443 kts 156°
2026-05-06 16:45 52.33485 16.54436 34779 ft 443 kts 156°
2026-05-06 16:45 52.28083 16.59281 34778 ft 443 kts 156°
2026-05-06 16:46 52.22676 16.64119 34779 ft 444 kts 156°
2026-05-06 16:46 52.17253 16.68968 34770 ft 444 kts 156°
2026-05-06 16:47 52.11728 16.73579 34767 ft 441 kts 163°
2026-05-06 16:47 52.06022 16.77197 34759 ft 440 kts 164°
2026-05-06 16:48 52.00305 16.80777 34756 ft 440 kts 164°
2026-05-06 16:48 51.94602 16.84361 34755 ft 441 kts 163°
2026-05-06 16:49 51.88887 16.87948 34754 ft 441 kts 163°
2026-05-06 16:49 51.83158 16.91535 34749 ft 441 kts 163°
2026-05-06 16:50 51.77402 16.95130 34749 ft 441 kts 163°
2026-05-06 16:50 51.71680 16.98689 34745 ft 441 kts 163°
2026-05-06 16:51 51.65953 17.02246 34744 ft 440 kts 163°
2026-05-06 16:51 51.60234 17.05785 34746 ft 441 kts 163°
2026-05-06 16:52 51.54504 17.09328 34746 ft 441 kts 163°
2026-05-06 16:52 51.48772 17.12858 34748 ft 442 kts 163°
2026-05-06 16:53 51.43030 17.16387 34750 ft 442 kts 163°
2026-05-06 16:53 51.37305 17.19895 34739 ft 442 kts 163°
2026-05-06 16:54 51.31531 17.23417 34741 ft 442 kts 163°
2026-05-06 16:54 51.25814 17.26896 34744 ft 442 kts 163°
2026-05-06 16:55 51.20057 17.30397 34739 ft 442 kts 163°
2026-05-06 16:55 51.14304 17.33891 34735 ft 442 kts 163°
2026-05-06 16:56 51.08552 17.37369 34751 ft 442 kts 163°
2026-05-06 16:56 51.02801 17.40832 34748 ft 442 kts 163°
2026-05-06 16:57 50.97043 17.44293 34747 ft 442 kts 162°
2026-05-06 16:57 50.91293 17.47742 34749 ft 442 kts 162°
2026-05-06 16:58 50.85463 17.51226 34748 ft 442 kts 162°
2026-05-06 16:58 50.79722 17.54650 34750 ft 442 kts 162°
2026-05-06 16:59 50.73974 17.58068 34750 ft 442 kts 162°
2026-05-06 16:59 50.68221 17.61480 34749 ft 443 kts 162°
2026-05-06 17:00 50.62434 17.64901 34747 ft 443 kts 162°
2026-05-06 17:00 50.56626 17.68329 34747 ft 443 kts 162°
2026-05-06 17:01 50.50846 17.71730 34747 ft 443 kts 162°
2026-05-06 17:01 50.45071 17.75121 34747 ft 443 kts 162°
2026-05-06 17:02 50.39255 17.78533 34749 ft 443 kts 162°
2026-05-06 17:02 50.33435 17.81931 34751 ft 443 kts 162°
2026-05-06 17:03 50.27581 17.85341 34753 ft 443 kts 162°
2026-05-06 17:03 50.22646 17.88208 34753 ft 443 kts 162°
2026-05-06 17:04 50.16796 17.91588 34758 ft 442 kts 162°
2026-05-06 17:04 50.10974 17.94953 34751 ft 442 kts 162°
2026-05-06 17:05 50.05211 17.98286 34763 ft 443 kts 162°
2026-05-06 17:05 49.99437 18.01604 34777 ft 442 kts 162°
2026-05-06 17:06 49.93570 18.04975 34774 ft 443 kts 160°
2026-05-06 17:06 49.87933 18.09033 34779 ft 444 kts 157°
2026-05-06 17:07 49.82329 18.13212 34763 ft 444 kts 157°
2026-05-06 17:07 49.76787 18.17311 34759 ft 444 kts 157°
2026-05-06 17:08 49.71469 18.21235 34758 ft 444 kts 157°
2026-05-06 17:08 49.65605 18.25547 34755 ft 444 kts 157°
2026-05-06 17:09 49.60143 18.29552 34760 ft 444 kts 157°
2026-05-06 17:09 49.54411 18.33746 34768 ft 444 kts 157°
2026-05-06 17:10 49.48851 18.37807 34781 ft 444 kts 157°
2026-05-06 17:10 49.43232 18.41899 34802 ft 444 kts 157°
2026-05-06 17:11 49.37539 18.46350 34818 ft 446 kts 152°
2026-05-06 17:11 49.32205 18.51207 34814 ft 446 kts 152°
2026-05-06 17:12 49.26828 18.56090 34820 ft 446 kts 152°
2026-05-06 17:12 49.21452 18.60957 34824 ft 446 kts 152°
2026-05-06 17:13 49.16906 18.65060 34813 ft 446 kts 152°
2026-05-06 17:13 49.12220 18.69280 34806 ft 446 kts 152°
2026-05-06 17:14 49.06160 18.74720 34823 ft 446 kts 152°
2026-05-06 17:14 49.00817 18.79507 34831 ft 446 kts 152°
2026-05-06 17:15 48.95430 18.84321 34836 ft 446 kts 152°
2026-05-06 17:15 48.90081 18.89090 34848 ft 446 kts 152°
2026-05-06 17:16 48.84679 18.93889 34848 ft 446 kts 152°
2026-05-06 17:16 48.79322 18.98635 34848 ft 446 kts 152°
2026-05-06 17:17 48.73785 19.03535 34853 ft 446 kts 152°
2026-05-06 17:17 48.68240 19.08430 34856 ft 446 kts 152°
2026-05-06 17:18 48.62883 19.13138 34863 ft 446 kts 152°
2026-05-06 17:18 48.58124 19.17314 34864 ft 446 kts 152°
2026-05-06 17:19 48.52851 19.21935 34861 ft 446 kts 152°
2026-05-06 17:19 48.47480 19.26631 34871 ft 446 kts 153°
2026-05-06 17:20 48.42077 19.31339 34868 ft 446 kts 153°
2026-05-06 17:20 48.36514 19.36178 34872 ft 446 kts 153°
2026-05-06 17:21 48.31134 19.40842 34867 ft 447 kts 153°
2026-05-06 17:21 48.25715 19.45529 34863 ft 446 kts 153°
2026-05-06 17:22 48.20335 19.50168 34865 ft 446 kts 153°
2026-05-06 17:22 48.14916 19.54837 34864 ft 446 kts 153°
2026-05-06 17:23 48.09242 19.59706 34867 ft 446 kts 153°
2026-05-06 17:23 48.03811 19.64358 34861 ft 446 kts 153°
2026-05-06 17:24 47.98392 19.68989 34864 ft 446 kts 153°
2026-05-06 17:24 47.93964 19.72763 34867 ft 446 kts 153°
2026-05-06 17:25 47.88499 19.77399 34876 ft 446 kts 153°
2026-05-06 17:25 47.83004 19.82059 34872 ft 446 kts 153°
2026-05-06 17:26 47.77623 19.86620 34870 ft 446 kts 153°
2026-05-06 17:26 47.72200 19.91207 34871 ft 446 kts 153°
2026-05-06 17:27 47.66689 19.95853 34870 ft 446 kts 153°
2026-05-06 17:27 47.61329 20.00358 34869 ft 446 kts 153°
2026-05-06 17:28 47.55897 20.04911 34866 ft 446 kts 153°
2026-05-06 17:28 47.50470 20.09450 34898 ft 446 kts 153°
2026-05-06 17:29 47.45198 20.13839 34885 ft 446 kts 153°
2026-05-06 17:29 47.39580 20.18511 34872 ft 446 kts 153°
2026-05-06 17:30 47.34140 20.23030 34871 ft 446 kts 153°
2026-05-06 17:30 47.29047 20.27251 34873 ft 446 kts 153°
2026-05-06 17:31 47.23585 20.31766 34856 ft 450 kts 155°
2026-05-06 17:31 47.18087 20.36304 34873 ft 450 kts 155°
2026-05-06 17:32 47.12579 20.40837 34873 ft 450 kts 155°
2026-05-06 17:32 47.07106 20.45328 34876 ft 450 kts 155°
2026-05-06 17:33 47.01594 20.49841 34876 ft 450 kts 155°
2026-05-06 17:33 46.96126 20.54306 34890 ft 450 kts 155°
2026-05-06 17:34 46.90646 20.58766 34885 ft 451 kts 155°
2026-05-06 17:34 46.85131 20.63252 34892 ft 451 kts 155°
2026-05-06 17:35 46.79634 20.67713 34890 ft 452 kts 155°
2026-05-06 17:35 46.74134 20.72162 34891 ft 452 kts 155°
2026-05-06 17:36 46.65778 20.78901 34891 ft 452 kts 155°
2026-05-06 17:36 46.60272 20.83329 34894 ft 452 kts 155°
2026-05-06 17:37 46.54722 20.87783 34896 ft 452 kts 155°
2026-05-06 17:37 46.49209 20.92191 34902 ft 452 kts 155°
2026-05-06 17:38 46.43671 20.96614 34905 ft 453 kts 155°
2026-05-06 17:38 46.38152 21.01016 34903 ft 453 kts 155°
2026-05-06 17:39 46.32628 21.05408 34905 ft 453 kts 155°
2026-05-06 17:39 46.27108 21.09794 34904 ft 454 kts 153°
2026-05-06 17:40 46.22727 21.14111 34905 ft 457 kts 147°
2026-05-06 17:40 46.17590 21.19518 34902 ft 457 kts 147°
2026-05-06 17:41 46.12361 21.24992 34905 ft 457 kts 147°
2026-05-06 17:41 46.07211 21.30354 34909 ft 457 kts 147°
2026-05-06 17:42 46.02058 21.35705 34908 ft 457 kts 147°
2026-05-06 17:42 45.96849 21.41101 34906 ft 458 kts 147°
2026-05-06 17:43 45.91640 21.46484 34902 ft 458 kts 147°
2026-05-06 17:43 45.86469 21.51821 34900 ft 458 kts 147°
2026-05-06 17:44 45.81251 21.57191 34907 ft 459 kts 147°
2026-05-06 17:44 45.76075 21.62506 34914 ft 459 kts 147°
2026-05-06 17:45 45.70871 21.67836 34919 ft 459 kts 147°
2026-05-06 17:45 45.65672 21.73145 34921 ft 459 kts 147°
2026-05-06 17:46 45.60396 21.78524 34937 ft 460 kts 147°
2026-05-06 17:46 45.55160 21.83846 34933 ft 460 kts 147°
2026-05-06 17:47 45.49938 21.89139 34951 ft 460 kts 147°
2026-05-06 17:47 45.45343 21.93793 34950 ft 460 kts 147°
2026-05-06 17:48 45.40103 21.99090 34945 ft 461 kts 147°
2026-05-06 17:48 45.34751 22.04487 34972 ft 461 kts 147°
2026-05-06 17:49 45.29518 22.09749 34965 ft 461 kts 147°
2026-05-06 17:49 45.24266 22.15011 34968 ft 462 kts 147°
2026-05-06 17:50 45.18979 22.20304 34957 ft 462 kts 147°
2026-05-06 17:50 45.13761 22.25517 34978 ft 462 kts 147°
2026-05-06 17:51 45.08480 22.30776 34975 ft 462 kts 147°
2026-05-06 17:51 45.03213 22.36010 34980 ft 462 kts 147°
2026-05-06 17:52 44.97951 22.41229 34971 ft 462 kts 147°
2026-05-06 17:52 44.92667 22.46456 34975 ft 463 kts 147°
2026-05-06 17:53 44.87005 22.52045 34968 ft 462 kts 147°
2026-05-06 17:53 44.81707 22.57261 34961 ft 462 kts 147°
2026-05-06 17:54 44.76270 22.62177 34954 ft 460 kts 156°
2026-05-06 17:54 44.70520 22.66122 34954 ft 459 kts 156°
2026-05-06 17:55 44.64769 22.70039 34953 ft 459 kts 156°
2026-05-06 17:55 44.59098 22.73916 34952 ft 459 kts 156°
2026-05-06 17:56 44.53340 22.77853 34974 ft 460 kts 156°
2026-05-06 17:56 44.47623 22.81750 35159 ft 461 kts 156°
2026-05-06 17:57 44.44766 22.83693 35384 ft 461 kts 156°
2026-05-06 17:57 44.41982 22.85586 35586 ft 460 kts 156°
2026-05-06 17:57 44.39020 22.87596 35778 ft 461 kts 156°
2026-05-06 17:57 44.36101 22.89575 35934 ft 462 kts 156°
2026-05-06 17:58 44.33243 22.91512 36078 ft 462 kts 156°
2026-05-06 17:58 44.30322 22.93489 36228 ft 463 kts 156°
2026-05-06 17:58 44.27426 22.95444 36399 ft 463 kts 156°
2026-05-06 17:58 44.24617 22.97341 36538 ft 464 kts 156°
2026-05-06 17:59 44.21707 22.99305 36711 ft 464 kts 156°
2026-05-06 17:59 44.18811 23.01257 36882 ft 464 kts 156°
2026-05-06 17:59 44.15900 23.03216 36990 ft 465 kts 156°
2026-05-06 17:59 44.12981 23.05178 36993 ft 464 kts 156°
2026-05-06 18:00 44.07172 23.09076 36960 ft 464 kts 156°
2026-05-06 18:00 44.02331 23.12321 36954 ft 464 kts 156°
2026-05-06 18:01 43.96509 23.16213 36959 ft 465 kts 156°
2026-05-06 18:01 43.90677 23.20099 36957 ft 465 kts 156°
2026-05-06 18:02 43.84846 23.23980 36961 ft 465 kts 156°
2026-05-06 18:02 43.78935 23.27744 36974 ft 465 kts 158°
2026-05-06 18:03 43.73046 23.31438 36960 ft 465 kts 158°